Regional Weather Roundup
Issued by NWS Cleveland, OH

Home | Current Version | Previous Version | Graphics & Text | Print | Product List | Glossary On
Versions: 1 2 3 4 5 6 7 8 9 10 11 12 13 14 15 16 17 18 19 20 21 22 23 24 25 26 27 28 29 30 31 32 33 34 35 36 37 38 39 40 41 42 43 44 45 46 47 48 49 50
000
ASUS41 KCLE 181600
RWRCLE
OHIO REGIONAL WEATHER ROUNDUP
NATIONAL WEATHER SERVICE WILMINGTON, OH
1100 AM EST WED JAN 18 2017

NOTE: "FAIR" INDICATES FEW OR NO CLOUDS BELOW 12,000 FEET WITH NO
SIGNIFICANT WEATHER AND/OR OBSTRUCTIONS TO VISIBILITY.

OHZ001>008-015>018-024>027-034-035-043-044-181700-
   NORTHWEST OHIO

CITY           SKY/WX    TMP DP  RH WIND       PRES   REMARKS
DEFIANCE       CLOUDY    37  33  85 W9        30.15R FOG
FINDLAY        CLOUDY    37  34  89 W15       30.14R FOG
TOLEDO EXPRESS CLOUDY    36  36 100 SW16      30.13R FOG
TOLEDO EXEC    CLOUDY    38  36  92 W14       30.14R
LIMA           CLOUDY    36  35  96 W15       30.15R
$$

OHZ009>014-019>023-028>033-038-089-181700-
   NORTHEAST OHIO

CITY           SKY/WX    TMP DP  RH WIND       PRES   REMARKS
CLE-HOPKINS    CLOUDY    39  35  86 W13       30.12R FOG
CLE-LAKEFRONT  CLOUDY    37  34  89 W15       30.10R
CUY CO. ARPT   CLOUDY    39  36  87 W17       30.09R
LORAIN-ELYRIA  CLOUDY    36  33  89 W9        30.11R FOG
ASHTABULA      CLOUDY    36  35  96 W12G21    30.08R
AKRON-CANTON   CLOUDY    38  34  85 W10       30.09R FOG
WOOSTER        NOT AVBL
MANSFIELD      CLOUDY    35  34  96 W9G20     30.12R FOG     WCI  28
YOUNGSTOWN     DRIZZLE   37  34  89 W14       30.06R
$$

OHZ042-051>053-060>062-070>072-077>081-181700-
  SOUTHWEST OHIO

CITY           SKY/WX    TMP DP  RH WIND       PRES   REMARKS
CINC-COVINGTON CLOUDY    38  35  89 W9        30.21R
CINC-LUNKEN    CLOUDY    40  36  86 W6        30.24R
HAMILTON       CLOUDY    40  36  86 W8        30.23R
DAYTON         NOT AVBL
WRIGHT-PAT AFB NOT AVBL
DAYTON GENERAL CLOUDY    38  35  89 W9        30.19R
WILMINGTON     CLOUDY    37  34  89 W14       30.19R
$$

OHZ036-037-039>041-045>050-054>059-063>069-073>076-082>088-181700-
  CENTRAL AND SOUTHEAST OHIO

CITY           SKY/WX    TMP DP  RH WIND       PRES   REMARKS
COLUMBUS       CLOUDY    41  34  76 W14       30.16R
OSU AIRPORT    CLOUDY    39  36  89 W9        30.16R
BOLTON FIELD   CLOUDY    39  36  87 W7        30.18R
RICKENBACK AFB NOT AVBL
NEWARK         CLOUDY    40  34  79 W9        30.16R
MARION         CLOUDY    37  34  89 NW10G20   30.15R
LANCASTER      CLOUDY    41  34  76 W8        30.17R
ZANESVILLE     CLOUDY    40  33  76 W9        30.15R
NEW PHILLY     CLOUDY    39  35  86 W8        30.13R
$$



USA.gov is the U.S. government's official web portal to all federal, state and local government web resources and services.